星链-2041 (STARLINK-2041 )

导读 | 豆包AI

STARLINK-2041是美国SpaceX公司星链(Starlink)低轨宽带星座中的一颗卫星,于2021年2月16日发射。它属于星链批量生产的v1.0版本,采用平板设计,配备单块太阳电池阵与氪工质霍尔推进器,搭载Ku/Ka波段通信载荷,具备自主避撞能力,设计寿命约5-7年,旨在为全球提供覆盖广泛的高速卫星互联网接入服务。服役末期会主动离轨再入大气层烧毁,减少轨道垃圾。

基本信息
目录编号:
47657
目录名称:
STARLINK-2041
国际标识:
2021-012AP
轨道中心:
EARTH
卫星名称:
星链-2041
卫星全名:
星链-2041 (STARLINK-2041 )
卫星状态:
在轨 (已飞行1924 天)
发射日期:
2021-02-16 UTC
国别 :
美国 (US)
星等 :
--
轨道信息
数据来源 国际轨道数据
星历时间: 2026-05-24T08:06:18+0800
1天前
查看轨道信息
半长轴: 6728.009km
偏心率: 0.0002645
轨道倾角: 53.158°
近地点辐角 144.139°
升交点赤经 57.983°
平近点角 215.981°
近地点: 348.092km
远地点: 351.652km
周期: 91.535分钟
每日圈数: 15.731602
详细信息
固有亮度:
5
最大亮度:
2.5
卫星平台:
Starlink V1.0
覆盖范围:
全球
运营商:
太空探索技术公司
运营商所在国:
美国
制造商(研发单位):
太空探索技术公司
制造商所在国:
美国
使用方式:
暂无
卫星简介
星链(Starlink)计划是由太空探索技术公司(SpaceX)提出的一个巨型低轨卫星互联网星座项目,计划在2019年至2024年间在太空搭建由约1.2万颗卫星组成的“星链”网络,其中1584颗将部署在地球上空550千米处的近地轨道,并从2020年开始工作。该卫星仍在工作。
2D轨道图
3D轨道图
轨道高度分析图
轨道倾角分析图
轨道综合分析图
查看轨道综合分析图